Back to catalog

STARLINK-31635

AliveCommunicationsVLEO
NORAD 59511·PAYLOAD·🇺🇸 United States

Launched Apr 17, 2024 from Cape Canaveral Space Force Station

Loading…

Next Passes (next 24 hours)

TLE

FreshSource: CelesTrak SupGP

Epoch: Sep 14, 2026, 20:52 UTC

1 59511C 24073A   26257.86993056 -.00022935  00000+0 -83078-3 0  2573
2 59511  43.0017 329.2623 0001688 268.0800  56.0275 15.27586420    18

Track STARLINK-31635 in real time with AllMySat

Download on the App Store